Location: Guferjoch
(46.7462°N, 8.4506°E)
Time: 22:45:35
(UTC+00:00)

Cosmos 1833 Rocket - Pass Details

Date: 14 July 2020
Orbit: 832 x 840 km, 71.0° (Epoch: 14 August)

Event Time Altitude Azimuth Distance (km) Brightness Sun altitude
Exits shadow 00:44:46 23° 150° (SSE) 1,686 3.9 -19.7°
Maximum altitude 00:47:14 34° 106° (ESE) 1,348 3.8 -19.5°
Drops below altitude 10° 00:52:14 10° 43° (NE) 2,452 6.1 -19.3°
Sets 00:54:52 0° 34° (NE) 3,392 7.3 -19.1°
